Regional Weather Roundup
Issued by NWS Little Rock, AR

Home | Current Version | Previous Version | Text Only | Print | Product List | Glossary Off
Versions: 1 2 3 4 5 6 7 8 9 10 11 12 13 14 15 16 17 18 19 20 21 22 23 24 25 26 27 28 29 30 31

000
ASUS44 KLZK 270205
RWRLZK

WEATHER ROUNDUP FOR ARKANSAS
NATIONAL WEATHER SERVICE LITTLE ROCK AR
900 PM CDT WED JUL 26 2017

NOTE: "FAIR" INDICATES FEW OR NO CLOUDS BELOW 12,000 FEET WITH NO
SIGNIFICANT WEATHER AND/OR OBSTRUCTIONS TO VISIBILITY.

ARZ001-003-010-029-270300-
NORTHWEST ARKANSAS

CITY           SKY/WX    TMP DP  RH WIND       PRES   REMARKS
FAYETTEVILLE   CLOUDY    80  76  87 CALM      30.02S HX  86
FORT SMITH     CLOUDY    88  72  58 S7        29.97F HX  94
HARRISON       CLOUDY    82  72  71 S3        30.04S HX  87
BENTONVILLE    MOCLDY    84  70  61 S3        30.02S HX  88
ROGERS         MOCLDY    85  71  63 S7        30.02F HX  90
SILOAM SPGS    CLOUDY    84  72  65 S8        30.00S HX  89
HIGHFILL       CLOUDY    83  74  74 S6        30.01S HX  89
SPRINGDALE     CLEAR     84  72  65 S6        30.03F HX  89
$$

ARZ004-005-016-270300-
NORTH CENTRAL ARKANSAS

CITY           SKY/WX    TMP DP  RH WIND       PRES   REMARKS
BATESVILLE     CLOUDY    84  73  70 S3        30.01S HX  91
FLIPPIN        MOCLDY    84  70  61 CALM      29.99S HX  88
MTN HOME       CLOUDY    82  72  71 CALM      30.01S HX  87
$$

ARZ040-041-270300-
WEST CENTRAL ARKANSAS

CITY           SKY/WX    TMP DP  RH WIND       PRES   REMARKS
MENA           CLOUDY    84  73  70 CALM      30.05S HX  91
MOUNT IDA      CLOUDY    82  71  69 CALM      30.02S HX  86
$$

ARZ009-017-025-026-028-270300-
NORTHEAST ARKANSAS

CITY           SKY/WX    TMP DP  RH WIND       PRES   REMARKS
CORNING        LGT RAIN  82  77  83 S8        30.01R HX  91
JONESBORO      CLOUDY    85  76  74 SW9       30.00S HX  94
WALNUT RIDGE   CLOUDY    84  72  65 S7        30.00S HX  89
BLYTHEVILLE    CLOUDY    84  78  82 SW5       30.02R HX  95
$$

ARZ022-023-033-042-044-270300-
CENTRAL ARKANSAS

CITY           SKY/WX    TMP DP  RH WIND       PRES   REMARKS
LITTLE ROCK    CLOUDY    83  76  79 S6        30.01R HX  91
N LITTLE ROCK    N/A     85  73  66 SW3       30.01R HX  92
JACKSONVILLE   CLOUDY    86  74  67 S5        30.01R HX  94
CONWAY           N/A     86  73  66 S5        29.99R HX  93
SEARCY         MOCLDY    83  79  88 S5        30.03R HX  94
HOT SPRINGS    CLOUDY    86  74  67 CALM      30.03R HX  94
RUSSELLVILLE   PTCLDY    82  75  79 CALM      30.00R HX  89
CLINTON        FAIR      81  79  94 CALM      30.01R HX  89
$$

ARZ036-270300-
EAST ARKANSAS

CITY           SKY/WX    TMP DP  RH WIND       PRES   REMARKS
WEST MEMPHIS   LGT RAIN  83  76  79 SW5       30.02R HX  91
$$

ARZ050-053-066-070-073-270300-
SOUTHWEST ARKANSAS

CITY           SKY/WX    TMP DP  RH WIND       PRES   REMARKS
ARKADELPHIA    FAIR      82  80  94 CALM      30.02R HX  94
CAMDEN         PTCLDY    81  75  83 CALM      30.02R HX  86
TEXARKANA      CLOUDY    83  73  72 SE5       30.02R HX  89
EL DORADO      CLOUDY    82  77  84 CALM      30.04R HX  90
DE QUEEN       CLOUDY    81  80  97 CALM      29.99S HX  91
$$

ARZ056-057-069-270300-
SOUTHEAST ARKANSAS

CITY           SKY/WX    TMP DP  RH WIND       PRES   REMARKS
PINE BLUFF     CLEAR     83  76  79 S3        30.02R HX  91
STUTTGART      CLEAR     82  66  57 S7        30.03R HX  85
MONTICELLO     CLEAR     83  74  74 CALM      30.04R HX  89

$$






USA.gov is the U.S. government's official web portal to all federal, state and local government web resources and services.